DECAYED

STARLINK-3951, 52533 (Decayed)

Orbit data source: Space-Track

STARLINK-3951, 52533 was a payload satellite owned by SpaceX/Seattle (US) in LEO that was launched on Fri, 13 May 2022 UTC via an FALCON 9 launch vehicle from the Air Force Western Test Range (AFWTR). Payload-class satellites include a variety of spacecraft equipped with specific instruments for various scientific and technological missions. These include communications satellites like Starlink; space stations such as the ISS; scientific satellites like the Hubble; Earth observation satellites from companies like Planet Labs, Umbra, and HawkEye 360; GPS; miniature CubeSats for education and research; and military/defense satellites.

Not visible in the next 10 days
Identifier
52533, 2022-051A
Orbit
Decayed
Country
Flag of USUS
Related business
Manufacturer
SpaceX/Seattle
Mission
Decayed Commercial Communications
Bus & Motor
STARLINK, Unknown motor
Mass
297 kg wet, ~275 kg dry
Launch date (UTC)
2022-05-13 (4 years ago)
Launch vehicle
FALCON 9
Launch site
Air Force Western Test Range (AFWTR)
Object type
Payload
Rocket body
Debris
Shape & HBR
Box + 1 Pan, 10.1 m
Radar Cross Section
13.562 m², Large (>1 m²)

Expand to show TLE details & history
Last TLE update: 1 year ago

TLE from 1 year ago
0 STARLINK-3951
1 52533U 22051A   25017.48723904  .18892047  12622-4  26560-3 0  9998
2 52533  53.1943 173.9610 0003268 298.4807 169.2086 16.48868238149009
Epoch: 2025-01-17T11:41Z
TLE epoch observation values (Epoch: 2025-01-17T11:41:37.453Z)
Latitude
49.86586°
Longitude
-0.52635°
Altitude
150.155 km
Speed
7.821 km/s
True Right ascension
19h 28m 07s
True Declination
49° 40' 50"
Sunlit
Object was in daylight at epoch
Visualization orbit readout
Latitude
Unknown
Longitude
Unknown
Altitude
Unknown
Speed
Unknown
Apparent Right ascension
Unknown
Apparent Declination
Unknown
Sunlit
N/A
Visualization observer readout
Local Sidereal Time
21:33:27
Azimuth
Unknown
Elevation
Unknown
Doppler factor
Unknown
Orbital elements
Apogee altitude
144.712 km
Perigee altitude
140.45 km
Semi-major axis
6,520.718 km
Eccentricity
0.00033
Inclination
53.1943°
RAAN
173.961°
Arg. of periapsis
298.4807°
True anomaly
169.21561°
Mean anomaly
169.2086°
Eccentric anomaly
169.2121°
Mean motion
4.12192 °/min
Orbital period
87.34 mins
BSTAR
0.0002656
Loading maneuver chart data...
Computing Atmospheric mass density...
Loading historical data...
Loading historical data...
Loading historical data...
Loading historical data...
Loading historical data...
Loading historical data...
Loading historical data...

Documentation

Showing up to 5 results
|